PBD200 URML-UUWW

Flight info

Callsign PBD200
Flight time 2h 13m
Altitude 38000
Route AMKOL1P AMKOL B945 UP N50 OLOPI OLOPI3A
Aircraft B738/M-SDE2E3FGHIRWXY/LB1

Departure

Time 2026-04-25 08:29
Airport Makhachkala Uytash International Airport (URML)

Arrival

Time 2026-04-25 10:43
Airport Vnukovo International Airport (UUWW)
Time Latitude Longitude Altitude Speed Heading
2026-04-25 08:16 42.81982 47.65579 20 ft 0 kts 59°
2026-04-25 08:22 42.81974 47.65560 20 ft 2 kts 64°
2026-04-25 08:23 42.81969 47.65546 20 ft 2 kts 69°
2026-04-25 08:23 42.81964 47.65525 20 ft 2 kts 77°
2026-04-25 08:23 42.81962 47.65502 22 ft 2 kts 91°
2026-04-25 08:23 42.81964 47.65480 20 ft 2 kts 109°
2026-04-25 08:24 42.81971 47.65460 21 ft 2 kts 129°
2026-04-25 08:24 42.81983 47.65444 22 ft 2 kts 143°
2026-04-25 08:24 42.81990 47.65437 21 ft 1 kts 148°
2026-04-25 08:24 42.81991 47.65437 23 ft 0 kts 148°
2026-04-25 08:25 42.81989 47.65439 21 ft 2 kts 148°
2026-04-25 08:25 42.81962 47.65461 22 ft 8 kts 148°
2026-04-25 08:26 42.81896 47.65516 20 ft 14 kts 149°
2026-04-25 08:26 42.81790 47.65575 20 ft 18 kts 187°
2026-04-25 08:26 42.81708 47.65441 20 ft 21 kts 238°
2026-04-25 08:26 42.81617 47.65300 19 ft 15 kts 173°
2026-04-25 08:27 42.81515 47.65384 20 ft 20 kts 148°
2026-04-25 08:27 42.81385 47.65495 20 ft 25 kts 148°
2026-04-25 08:27 42.81216 47.65638 19 ft 32 kts 148°
2026-04-25 08:27 42.81013 47.65811 18 ft 36 kts 148°
2026-04-25 08:28 42.80805 47.65987 20 ft 29 kts 148°
2026-04-25 08:28 42.80733 47.66120 20 ft 13 kts 138°
2026-04-25 08:28 42.80697 47.66073 21 ft 9 kts 308°
2026-04-25 08:28 42.80746 47.66035 22 ft 5 kts 327°
2026-04-25 08:29 42.80822 47.65969 20 ft 38 kts 328°
2026-04-25 08:29 42.81267 47.65592 19 ft 111 kts 328°
2026-04-25 08:29 42.82103 47.64889 55 ft 167 kts 329°
2026-04-25 08:29 42.83100 47.64044 845 ft 167 kts 328°
2026-04-25 08:30 42.84062 47.63220 1908 ft 161 kts 330°
2026-04-25 08:30 42.85073 47.62361 2432 ft 186 kts 330°
2026-04-25 08:30 42.86208 47.61395 3011 ft 194 kts 329°
2026-04-25 08:30 42.87453 47.60667 3567 ft 200 kts 355°
2026-04-25 08:31 42.88857 47.60700 4141 ft 206 kts
2026-04-25 08:31 42.90317 47.60734 4722 ft 213 kts
2026-04-25 08:31 42.91820 47.60750 5293 ft 218 kts 359°
2026-04-25 08:31 42.93349 47.60756 5963 ft 220 kts 358°
2026-04-25 08:32 42.94894 47.60754 6606 ft 223 kts 357°
2026-04-25 08:32 42.96457 47.60746 7192 ft 225 kts 356°
2026-04-25 08:32 42.98016 47.60736 7774 ft 227 kts 356°
2026-04-25 08:32 42.99606 47.60724 8384 ft 229 kts 356°
2026-04-25 08:33 43.01211 47.60709 8985 ft 231 kts 355°
2026-04-25 08:33 43.02830 47.60693 9586 ft 233 kts 355°
2026-04-25 08:33 43.04458 47.60676 10178 ft 235 kts 354°
2026-04-25 08:33 43.06105 47.60659 10703 ft 238 kts 355°
2026-04-25 08:34 43.07772 47.60640 11241 ft 241 kts 354°
2026-04-25 08:34 43.09460 47.60617 11793 ft 243 kts 353°
2026-04-25 08:34 43.11199 47.60390 12003 ft 261 kts 347°
2026-04-25 08:34 43.13077 47.59998 12188 ft 285 kts 346°
2026-04-25 08:35 43.15114 47.59548 12392 ft 309 kts 347°
2026-04-25 08:35 43.17286 47.59074 12580 ft 331 kts 347°
2026-04-25 08:35 43.19642 47.58571 12759 ft 353 kts 347°
2026-04-25 08:35 43.22143 47.58050 13022 ft 371 kts 348°
2026-04-25 08:36 43.24724 47.57523 13590 ft 379 kts 348°
2026-04-25 08:36 43.27347 47.56994 14273 ft 382 kts 347°
2026-04-25 08:36 43.29991 47.56463 14996 ft 384 kts 347°
2026-04-25 08:36 43.32648 47.55928 15732 ft 386 kts 346°
2026-04-25 08:37 43.35319 47.55389 16479 ft 389 kts 346°
2026-04-25 08:37 43.38012 47.54843 17196 ft 392 kts 346°
2026-04-25 08:37 43.40725 47.54293 17898 ft 395 kts 345°
2026-04-25 08:37 43.43447 47.53739 18563 ft 398 kts 345°
2026-04-25 08:38 43.46166 47.53185 19100 ft 402 kts 345°
2026-04-25 08:38 43.48950 47.52617 19594 ft 407 kts 345°
2026-04-25 08:38 43.51768 47.52043 20100 ft 412 kts 344°
2026-04-25 08:38 43.54621 47.51462 20627 ft 416 kts 344°
2026-04-25 08:39 43.57536 47.50868 21155 ft 420 kts 344°
2026-04-25 08:39 43.60405 47.50282 21659 ft 424 kts 344°
2026-04-25 08:39 43.63345 47.49691 22148 ft 429 kts 345°
2026-04-25 08:39 43.66321 47.49137 22622 ft 433 kts 345°
2026-04-25 08:40 43.69326 47.48601 23096 ft 438 kts 345°
2026-04-25 08:40 43.72360 47.48066 23573 ft 441 kts 345°
2026-04-25 08:40 43.75416 47.47526 23967 ft 445 kts 345°
2026-04-25 08:40 43.78513 47.46975 24361 ft 448 kts 345°
2026-04-25 08:41 43.81613 47.46421 24760 ft 450 kts 345°
2026-04-25 08:41 43.84733 47.45860 25142 ft 453 kts 344°
2026-04-25 08:41 43.87830 47.45300 25504 ft 456 kts 344°
2026-04-25 08:41 43.90981 47.44729 25875 ft 459 kts 344°
2026-04-25 08:42 43.94166 47.44151 26233 ft 462 kts 344°
2026-04-25 08:42 43.97363 47.43570 26581 ft 465 kts 344°
2026-04-25 08:42 44.00575 47.42986 26920 ft 467 kts 344°
2026-04-25 08:42 44.03815 47.42396 27277 ft 470 kts 344°
2026-04-25 08:43 44.07066 47.41804 27605 ft 473 kts 344°
2026-04-25 08:43 44.10349 47.41205 27910 ft 475 kts 344°
2026-04-25 08:43 44.13636 47.40605 28207 ft 478 kts 344°
2026-04-25 08:43 44.16949 47.40000 28486 ft 481 kts 344°
2026-04-25 08:44 44.20274 47.39391 28782 ft 483 kts 344°
2026-04-25 08:44 44.23610 47.38781 29156 ft 483 kts 344°
2026-04-25 08:44 44.26946 47.38172 29626 ft 482 kts 344°
2026-04-25 08:44 44.30225 47.37574 30120 ft 480 kts 344°
2026-04-25 08:45 44.33534 47.36967 30518 ft 479 kts 344°
2026-04-25 08:45 44.36828 47.36362 30889 ft 477 kts 344°
2026-04-25 08:45 44.40117 47.35755 31273 ft 475 kts 345°
2026-04-25 08:45 44.43400 47.35149 31644 ft 474 kts 345°
2026-04-25 08:46 44.46670 47.34544 31988 ft 473 kts 345°
2026-04-25 08:46 44.49936 47.33939 32333 ft 472 kts 345°
2026-04-25 08:46 44.53185 47.33337 32663 ft 471 kts 345°
2026-04-25 08:46 44.56434 47.32721 33004 ft 470 kts 345°
2026-04-25 08:47 44.59667 47.32100 33380 ft 468 kts 345°
2026-04-25 08:47 44.62889 47.31477 33704 ft 467 kts 345°
2026-04-25 08:47 44.66106 47.30854 34004 ft 467 kts 345°
2026-04-25 08:47 44.69325 47.30230 34270 ft 466 kts 345°
2026-04-25 08:48 44.72497 47.29616 34512 ft 466 kts 345°
2026-04-25 08:48 44.75718 47.28992 34729 ft 466 kts 345°
2026-04-25 08:48 44.78929 47.28370 34945 ft 466 kts 345°
2026-04-25 08:48 44.82147 47.27747 35188 ft 466 kts 345°
2026-04-25 08:49 44.85354 47.27126 35434 ft 465 kts 346°
2026-04-25 08:49 44.88564 47.26503 35650 ft 465 kts 346°
2026-04-25 08:49 44.91781 47.25877 35860 ft 466 kts 346°
2026-04-25 08:49 44.94987 47.25254 36088 ft 465 kts 346°
2026-04-25 08:50 44.98194 47.24629 36306 ft 465 kts 346°
2026-04-25 08:50 45.01404 47.24003 36510 ft 465 kts 346°
2026-04-25 08:50 45.04608 47.23377 36699 ft 465 kts 346°
2026-04-25 08:50 45.07819 47.22750 36901 ft 465 kts 346°
2026-04-25 08:51 45.11020 47.22125 37120 ft 464 kts 346°
2026-04-25 08:51 45.14229 47.21497 37318 ft 464 kts 346°
2026-04-25 08:51 45.17393 47.20877 37497 ft 465 kts 346°
2026-04-25 08:51 45.20600 47.20247 37625 ft 466 kts 346°
2026-04-25 08:52 45.23814 47.19615 37757 ft 467 kts 346°
2026-04-25 08:52 45.27043 47.18979 37892 ft 468 kts 346°
2026-04-25 08:52 45.30278 47.18342 38019 ft 469 kts 346°
2026-04-25 08:53 45.36768 47.17061 38066 ft 472 kts 346°
2026-04-25 08:53 45.43299 47.15770 38071 ft 475 kts 346°
2026-04-25 08:54 45.49868 47.14468 38056 ft 478 kts 346°
2026-04-25 08:54 45.56428 47.13167 38061 ft 478 kts 346°
2026-04-25 08:55 45.63025 47.11854 38056 ft 479 kts 346°
2026-04-25 08:55 45.69638 47.10539 38054 ft 480 kts 347°
2026-04-25 08:56 45.76250 47.09243 38057 ft 480 kts 347°
2026-04-25 08:56 45.82875 47.07941 38046 ft 480 kts 347°
2026-04-25 08:57 45.89487 47.06627 38042 ft 479 kts 345°
2026-04-25 08:57 45.95757 47.03846 38038 ft 465 kts 328°
2026-04-25 08:58 46.01401 46.99437 38043 ft 464 kts 326°
2026-04-25 08:58 46.07054 46.94949 38043 ft 464 kts 327°
2026-04-25 08:59 46.12752 46.90520 38046 ft 465 kts 327°
2026-04-25 08:59 46.18454 46.86104 38041 ft 465 kts 327°
2026-04-25 09:00 46.24252 46.81876 38046 ft 467 kts 330°
2026-04-25 09:00 46.30161 46.77940 38044 ft 467 kts 330°
2026-04-25 09:01 46.36033 46.74034 38044 ft 467 kts 330°
2026-04-25 09:01 46.41918 46.70060 38042 ft 466 kts 330°
2026-04-25 09:02 46.47798 46.66054 38043 ft 466 kts 330°
2026-04-25 09:02 46.53670 46.62040 38044 ft 466 kts 330°
2026-04-25 09:03 46.59534 46.58024 38039 ft 466 kts 330°
2026-04-25 09:03 46.65365 46.54022 38034 ft 466 kts 330°
2026-04-25 09:04 46.71223 46.49992 38034 ft 465 kts 330°
2026-04-25 09:04 46.77077 46.45955 38032 ft 465 kts 330°
2026-04-25 09:05 46.81931 46.42600 38032 ft 465 kts 330°
2026-04-25 09:05 46.87786 46.38544 38030 ft 464 kts 330°
2026-04-25 09:06 46.93621 46.34492 38027 ft 464 kts 330°
2026-04-25 09:06 46.99454 46.30432 38028 ft 464 kts 330°
2026-04-25 09:07 47.05244 46.26393 38024 ft 462 kts 330°
2026-04-25 09:07 47.11056 46.22331 38020 ft 462 kts 330°
2026-04-25 09:08 47.16863 46.18263 38019 ft 462 kts 330°
2026-04-25 09:08 47.22673 46.14182 38021 ft 462 kts 330°
2026-04-25 09:09 47.28480 46.10093 38011 ft 463 kts 330°
2026-04-25 09:09 47.34292 46.05991 38016 ft 463 kts 330°
2026-04-25 09:10 47.40098 46.01884 38006 ft 463 kts 330°
2026-04-25 09:10 47.45899 45.97779 38008 ft 463 kts 330°
2026-04-25 09:11 47.54615 45.91597 38005 ft 462 kts 330°
2026-04-25 09:11 47.60377 45.87495 38002 ft 462 kts 330°
2026-04-25 09:12 47.66171 45.83360 37996 ft 462 kts 330°
2026-04-25 09:12 47.71962 45.79216 37992 ft 462 kts 330°
2026-04-25 09:13 47.77745 45.75068 37991 ft 461 kts 330°
2026-04-25 09:13 47.83518 45.70917 37990 ft 461 kts 330°
2026-04-25 09:14 47.89292 45.66755 37985 ft 460 kts 330°
2026-04-25 09:14 47.95026 45.62611 37985 ft 460 kts 330°
2026-04-25 09:15 48.00782 45.58442 37981 ft 460 kts 330°
2026-04-25 09:15 48.06547 45.54255 37977 ft 459 kts 330°
2026-04-25 09:16 48.12265 45.50091 37977 ft 459 kts 330°
2026-04-25 09:16 48.18008 45.45899 37975 ft 459 kts 330°
2026-04-25 09:17 48.26628 45.39588 37971 ft 459 kts 330°
2026-04-25 09:18 48.32365 45.35374 37966 ft 459 kts 331°
2026-04-25 09:18 48.38103 45.31149 37965 ft 459 kts 330°
2026-04-25 09:19 48.43450 45.26040 37968 ft 453 kts 320°
2026-04-25 09:19 48.48407 45.20153 37962 ft 453 kts 319°
2026-04-25 09:20 48.53327 45.14295 37955 ft 453 kts 320°
2026-04-25 09:20 48.58322 45.08407 37952 ft 452 kts 320°
2026-04-25 09:21 48.63257 45.02605 37953 ft 451 kts 320°
2026-04-25 09:21 48.68206 44.96772 37947 ft 451 kts 320°
2026-04-25 09:22 48.73163 44.90913 37940 ft 450 kts 320°
2026-04-25 09:22 48.78102 44.85057 37942 ft 450 kts 320°
2026-04-25 09:23 48.83024 44.79208 37939 ft 449 kts 320°
2026-04-25 09:23 48.87896 44.73260 37940 ft 449 kts 319°
2026-04-25 09:24 48.92708 44.67208 37936 ft 449 kts 319°
2026-04-25 09:24 48.97494 44.61179 37935 ft 449 kts 319°
2026-04-25 09:25 49.02311 44.55120 37932 ft 449 kts 319°
2026-04-25 09:25 49.07123 44.49061 37931 ft 449 kts 319°
2026-04-25 09:26 49.11933 44.42989 37927 ft 448 kts 319°
2026-04-25 09:26 49.16745 44.36900 37928 ft 448 kts 319°
2026-04-25 09:27 49.21542 44.30813 37928 ft 448 kts 319°
2026-04-25 09:27 49.26340 44.24708 37927 ft 448 kts 319°
2026-04-25 09:28 49.31101 44.18635 37929 ft 448 kts 319°
2026-04-25 09:28 49.35884 44.12518 37927 ft 447 kts 319°
2026-04-25 09:29 49.40660 44.06392 37921 ft 447 kts 319°
2026-04-25 09:29 49.45422 44.00269 37928 ft 446 kts 319°
2026-04-25 09:30 49.50154 43.94172 37927 ft 445 kts 319°
2026-04-25 09:30 49.54895 43.88057 37925 ft 445 kts 319°
2026-04-25 09:31 49.59643 43.81937 37931 ft 444 kts 319°
2026-04-25 09:31 49.64388 43.75806 37927 ft 444 kts 319°
2026-04-25 09:32 49.69086 43.69717 37930 ft 443 kts 319°
2026-04-25 09:32 49.73811 43.63575 37925 ft 442 kts 319°
2026-04-25 09:33 49.78514 43.57446 37924 ft 442 kts 319°
2026-04-25 09:33 49.83211 43.51308 37927 ft 441 kts 319°
2026-04-25 09:34 49.87903 43.45161 37925 ft 441 kts 319°
2026-04-25 09:34 49.92581 43.39016 37923 ft 440 kts 319°
2026-04-25 09:35 49.97220 43.32905 37922 ft 440 kts 319°
2026-04-25 09:35 50.01882 43.26749 37923 ft 439 kts 319°
2026-04-25 09:36 50.06539 43.20583 37926 ft 439 kts 319°
2026-04-25 09:36 50.11188 43.14411 37924 ft 438 kts 319°
2026-04-25 09:37 50.15824 43.08240 37924 ft 438 kts 319°
2026-04-25 09:37 50.20459 43.02054 37926 ft 438 kts 319°
2026-04-25 09:38 50.25078 42.95873 37925 ft 437 kts 319°
2026-04-25 09:38 50.29666 42.89718 37923 ft 437 kts 319°
2026-04-25 09:39 50.34278 42.83513 37920 ft 436 kts 319°
2026-04-25 09:39 50.38872 42.77317 37920 ft 436 kts 319°
2026-04-25 09:40 50.45761 42.67993 37924 ft 436 kts 319°
2026-04-25 09:40 50.50346 42.61768 37923 ft 436 kts 319°
2026-04-25 09:41 50.55015 42.55690 37918 ft 436 kts 324°
2026-04-25 09:41 50.60008 42.50352 37916 ft 436 kts 325°
2026-04-25 09:42 50.65044 42.45029 37923 ft 436 kts 324°
2026-04-25 09:42 50.70067 42.39671 37915 ft 436 kts 324°
2026-04-25 09:43 50.75082 42.34279 37914 ft 436 kts 324°
2026-04-25 09:43 50.80093 42.28866 37911 ft 436 kts 324°
2026-04-25 09:44 50.85062 42.23485 37910 ft 436 kts 324°
2026-04-25 09:44 50.90069 42.18049 37906 ft 436 kts 324°
2026-04-25 09:45 50.95066 42.12609 37906 ft 436 kts 324°
2026-04-25 09:45 51.00063 42.07156 37903 ft 436 kts 324°
2026-04-25 09:46 51.05061 42.01687 37899 ft 436 kts 324°
2026-04-25 09:46 51.10053 41.96210 37896 ft 436 kts 324°
2026-04-25 09:47 51.15045 41.90718 37894 ft 436 kts 324°
2026-04-25 09:47 51.20040 41.85208 37896 ft 436 kts 324°
2026-04-25 09:48 51.24189 41.80620 37892 ft 437 kts 324°
2026-04-25 09:48 51.29992 41.74186 37887 ft 437 kts 324°
2026-04-25 09:49 51.34989 41.68629 37884 ft 437 kts 324°
2026-04-25 09:49 51.39139 41.64003 37881 ft 437 kts 324°
2026-04-25 09:50 51.44130 41.58425 37878 ft 437 kts 324°
2026-04-25 09:50 51.49130 41.52822 37877 ft 438 kts 323°
2026-04-25 09:51 51.54117 41.47218 37877 ft 438 kts 323°
2026-04-25 09:51 51.59101 41.41601 37868 ft 438 kts 323°
2026-04-25 09:52 51.64088 41.35968 37868 ft 438 kts 323°
2026-04-25 09:52 51.69069 41.30326 37862 ft 438 kts 323°
2026-04-25 09:53 51.74017 41.24712 37861 ft 438 kts 323°
2026-04-25 09:53 51.79001 41.19045 37857 ft 437 kts 323°
2026-04-25 09:54 51.83978 41.13366 37851 ft 438 kts 323°
2026-04-25 09:54 51.88952 41.07676 37857 ft 438 kts 323°
2026-04-25 09:55 51.93922 41.01975 37846 ft 438 kts 323°
2026-04-25 09:55 51.98886 40.96264 37846 ft 438 kts 323°
2026-04-25 09:56 52.03850 40.90544 37838 ft 438 kts 324°
2026-04-25 09:56 52.09068 40.85493 37835 ft 439 kts 329°
2026-04-25 09:57 52.14413 40.80666 37833 ft 439 kts 329°
2026-04-25 09:57 52.19761 40.75782 37826 ft 439 kts 328°
2026-04-25 09:58 52.25087 40.70861 37821 ft 440 kts 328°
2026-04-25 09:58 52.30399 40.65934 37816 ft 440 kts 328°
2026-04-25 09:59 52.35726 40.60985 37814 ft 440 kts 328°
2026-04-25 09:59 52.41057 40.56039 37806 ft 440 kts 328°
2026-04-25 10:00 52.46385 40.51083 37799 ft 440 kts 328°
2026-04-25 10:00 52.51685 40.46137 37791 ft 441 kts 328°
2026-04-25 10:01 52.57021 40.41157 37803 ft 441 kts 328°
2026-04-25 10:01 52.62355 40.36167 37797 ft 441 kts 328°
2026-04-25 10:02 52.67704 40.31147 37790 ft 442 kts 328°
2026-04-25 10:02 52.73052 40.26111 37791 ft 442 kts 328°
2026-04-25 10:03 52.78400 40.21062 37780 ft 443 kts 328°
2026-04-25 10:03 52.83718 40.16029 37778 ft 443 kts 328°
2026-04-25 10:04 52.89074 40.10946 37767 ft 444 kts 328°
2026-04-25 10:04 52.94442 40.05838 37772 ft 445 kts 328°
2026-04-25 10:05 52.99818 40.00707 37762 ft 446 kts 328°
2026-04-25 10:05 53.05193 39.95562 37767 ft 446 kts 328°
2026-04-25 10:06 53.10576 39.90394 37755 ft 447 kts 328°
2026-04-25 10:06 53.15944 39.85224 37755 ft 448 kts 328°
2026-04-25 10:07 53.21346 39.80007 37743 ft 448 kts 328°
2026-04-25 10:07 53.26748 39.74775 37750 ft 449 kts 328°
2026-04-25 10:08 53.32158 39.69519 37743 ft 450 kts 328°
2026-04-25 10:08 53.37574 39.64243 37743 ft 450 kts 328°
2026-04-25 10:09 53.43016 39.59030 37733 ft 451 kts 330°
2026-04-25 10:09 53.48625 39.54265 37742 ft 452 kts 332°
2026-04-25 10:10 53.54236 39.49609 37730 ft 452 kts 332°
2026-04-25 10:10 53.59871 39.44857 37734 ft 452 kts 331°
2026-04-25 10:11 53.65484 39.40069 37727 ft 453 kts 331°
2026-04-25 10:11 53.71114 39.35245 37726 ft 453 kts 331°
2026-04-25 10:12 53.76730 39.30419 37721 ft 453 kts 331°
2026-04-25 10:13 53.85180 39.23136 37721 ft 454 kts 331°
2026-04-25 10:13 53.90789 39.18280 37722 ft 454 kts 331°
2026-04-25 10:14 53.96360 39.13439 37590 ft 443 kts 331°
2026-04-25 10:14 53.99091 39.11059 37203 ft 439 kts 331°
2026-04-25 10:14 54.01795 39.08700 36721 ft 433 kts 330°
2026-04-25 10:14 54.04466 39.06364 36101 ft 430 kts 330°
2026-04-25 10:15 54.07121 39.04040 35529 ft 427 kts 330°
2026-04-25 10:15 54.09764 39.01722 34949 ft 425 kts 330°
2026-04-25 10:15 54.12344 38.99457 34399 ft 422 kts 330°
2026-04-25 10:15 54.14954 38.97163 33860 ft 420 kts 330°
2026-04-25 10:16 54.17544 38.94882 33236 ft 417 kts 330°
2026-04-25 10:16 54.20122 38.92610 32601 ft 415 kts 330°
2026-04-25 10:16 54.22679 38.90353 31973 ft 412 kts 330°
2026-04-25 10:16 54.25234 38.88124 31371 ft 410 kts 331°
2026-04-25 10:17 54.27788 38.85951 30775 ft 408 kts 331°
2026-04-25 10:17 54.30326 38.83808 30193 ft 406 kts 331°
2026-04-25 10:17 54.32860 38.81667 29585 ft 404 kts 331°
2026-04-25 10:17 54.35348 38.79555 28922 ft 402 kts 331°
2026-04-25 10:18 54.37853 38.77421 28243 ft 400 kts 331°
2026-04-25 10:18 54.40346 38.75292 27595 ft 399 kts 331°
2026-04-25 10:18 54.42820 38.73174 26946 ft 397 kts 331°
2026-04-25 10:18 54.45282 38.71064 26337 ft 395 kts 331°
2026-04-25 10:19 54.47741 38.68953 25725 ft 393 kts 331°
2026-04-25 10:19 54.50185 38.66852 25129 ft 391 kts 331°
2026-04-25 10:19 54.52589 38.64778 24549 ft 390 kts 331°
2026-04-25 10:19 54.55003 38.62692 24086 ft 386 kts 331°
2026-04-25 10:20 54.57389 38.60628 23656 ft 381 kts 331°
2026-04-25 10:20 54.59748 38.58584 23326 ft 375 kts 332°
2026-04-25 10:20 54.62046 38.56592 23077 ft 365 kts 332°
2026-04-25 10:20 54.64283 38.54649 22925 ft 355 kts 331°
2026-04-25 10:21 54.66480 38.52737 22752 ft 354 kts 331°
2026-04-25 10:21 54.68660 38.50838 22706 ft 353 kts 331°
2026-04-25 10:21 54.70855 38.48924 22703 ft 351 kts 331°
2026-04-25 10:21 54.73038 38.47019 22714 ft 352 kts 331°
2026-04-25 10:22 54.75227 38.45116 22700 ft 353 kts 332°
2026-04-25 10:22 54.76684 38.43853 22696 ft 353 kts 332°
2026-04-25 10:22 54.79625 38.41307 22700 ft 353 kts 332°
2026-04-25 10:22 54.81819 38.39402 22707 ft 353 kts 332°
2026-04-25 10:23 54.84018 38.37492 22695 ft 353 kts 332°
2026-04-25 10:23 54.86334 38.36077 22640 ft 356 kts 347°
2026-04-25 10:23 54.88754 38.35418 22569 ft 356 kts 349°
2026-04-25 10:23 54.91212 38.34852 22484 ft 356 kts 350°
2026-04-25 10:24 54.93674 38.34293 22407 ft 356 kts 350°
2026-04-25 10:24 54.96125 38.33716 22313 ft 355 kts 349°
2026-04-25 10:24 54.98578 38.33118 22225 ft 355 kts 349°
2026-04-25 10:24 55.01020 38.32508 22156 ft 354 kts 349°
2026-04-25 10:25 55.03471 38.31887 22071 ft 354 kts 349°
2026-04-25 10:25 55.05875 38.31273 21990 ft 354 kts 349°
2026-04-25 10:25 55.08314 38.30649 21911 ft 354 kts 349°
2026-04-25 10:25 55.10757 38.30022 21823 ft 354 kts 349°
2026-04-25 10:26 55.13189 38.29398 21750 ft 353 kts 349°
2026-04-25 10:26 55.15621 38.28697 21617 ft 353 kts 344°
2026-04-25 10:26 55.17950 38.27308 21325 ft 352 kts 336°
2026-04-25 10:26 55.20204 38.25690 21057 ft 347 kts 336°
2026-04-25 10:27 55.22418 38.24089 20789 ft 343 kts 336°
2026-04-25 10:27 55.24629 38.22525 20529 ft 342 kts 336°
2026-04-25 10:27 55.26838 38.20998 20262 ft 341 kts 337°
2026-04-25 10:27 55.29050 38.19484 20015 ft 341 kts 337°
2026-04-25 10:28 55.31256 38.17972 19755 ft 340 kts 336°
2026-04-25 10:28 55.33311 38.15951 19520 ft 337 kts 323°
2026-04-25 10:28 55.35178 38.13476 19312 ft 335 kts 322°
2026-04-25 10:28 55.37020 38.10980 19105 ft 334 kts 322°
2026-04-25 10:29 55.38868 38.08486 18887 ft 333 kts 322°
2026-04-25 10:29 55.40710 38.06020 18675 ft 332 kts 322°
2026-04-25 10:29 55.42553 38.03567 18462 ft 332 kts 322°
2026-04-25 10:29 55.44369 38.01160 18250 ft 331 kts 322°
2026-04-25 10:30 55.46199 37.98736 18042 ft 325 kts 322°
2026-04-25 10:30 55.47412 37.97128 17879 ft 320 kts 322°
2026-04-25 10:30 55.49673 37.94097 17320 ft 315 kts 320°
2026-04-25 10:30 55.51331 37.91428 16384 ft 328 kts 316°
2026-04-25 10:31 55.52985 37.88569 15470 ft 338 kts 316°
2026-04-25 10:31 55.54691 37.85642 14542 ft 347 kts 316°
2026-04-25 10:31 55.56457 37.82655 13719 ft 351 kts 317°
2026-04-25 10:31 55.58136 37.79633 13073 ft 339 kts 309°
2026-04-25 10:32 55.59296 37.76087 12387 ft 331 kts 292°
2026-04-25 10:32 55.59767 37.73557 11957 ft 325 kts 288°
2026-04-25 10:32 55.60186 37.68356 11054 ft 320 kts 266°
2026-04-25 10:32 55.59833 37.65835 10657 ft 320 kts 251°
2026-04-25 10:33 55.58469 37.61235 9819 ft 315 kts 243°
2026-04-25 10:33 55.57718 37.58993 9384 ft 313 kts 242°
2026-04-25 10:33 55.56246 37.54667 8474 ft 307 kts 242°
2026-04-25 10:33 55.55499 37.52489 8009 ft 305 kts 242°
2026-04-25 10:34 55.54402 37.49322 7354 ft 301 kts 240°
2026-04-25 10:34 55.52985 37.46613 6713 ft 304 kts 216°
2026-04-25 10:34 55.51087 37.45301 6467 ft 294 kts 191°
2026-04-25 10:34 55.49082 37.45549 6208 ft 286 kts 163°
2026-04-25 10:35 55.47410 37.47284 5954 ft 278 kts 134°
2026-04-25 10:35 55.46406 37.50085 5755 ft 265 kts 105°
2026-04-25 10:35 55.46286 37.53185 5615 ft 249 kts 75°
2026-04-25 10:35 55.47025 37.55828 5493 ft 240 kts 44°
2026-04-25 10:36 55.48397 37.57400 5262 ft 237 kts 15°
2026-04-25 10:36 55.49990 37.58037 5019 ft 237 kts
2026-04-25 10:36 55.51610 37.58527 4736 ft 235 kts
2026-04-25 10:36 55.53224 37.58989 4490 ft 233 kts
2026-04-25 10:37 55.54797 37.59434 4203 ft 223 kts
2026-04-25 10:37 55.56296 37.59862 3997 ft 211 kts
2026-04-25 10:37 55.57713 37.60270 3867 ft 201 kts
2026-04-25 10:37 55.59089 37.60665 3746 ft 199 kts
2026-04-25 10:38 55.60463 37.61060 3592 ft 201 kts
2026-04-25 10:38 55.61855 37.61488 3488 ft 210 kts
2026-04-25 10:38 55.63331 37.61886 3385 ft 217 kts 359°
2026-04-25 10:38 55.64711 37.60969 3238 ft 211 kts 316°
2026-04-25 10:39 55.65328 37.58692 3144 ft 215 kts 276°
2026-04-25 10:39 55.65231 37.56006 3054 ft 222 kts 267°
2026-04-25 10:39 55.65004 37.53296 3053 ft 217 kts 261°
2026-04-25 10:39 55.64653 37.50786 3053 ft 201 kts 261°
2026-04-25 10:40 55.64209 37.48487 2979 ft 198 kts 251°
2026-04-25 10:40 55.63704 37.46344 2923 ft 180 kts 253°
2026-04-25 10:40 55.63249 37.44356 2770 ft 171 kts 250°
2026-04-25 10:40 55.62836 37.42414 2468 ft 162 kts 258°
2026-04-25 10:41 55.62424 37.40632 2236 ft 152 kts 250°
2026-04-25 10:41 55.62015 37.38882 2095 ft 157 kts 255°
2026-04-25 10:41 55.61617 37.37076 1823 ft 150 kts 253°
2026-04-25 10:41 55.61235 37.35385 1572 ft 145 kts 253°
2026-04-25 10:42 55.60853 37.33689 1331 ft 149 kts 252°
2026-04-25 10:42 55.60470 37.31994 1123 ft 147 kts 249°
2026-04-25 10:42 55.60100 37.30334 911 ft 144 kts 250°
2026-04-25 10:42 55.59727 37.28720 705 ft 140 kts 251°
2026-04-25 10:43 55.59414 37.27304 671 ft 97 kts 249°
2026-04-25 10:43 55.59232 37.26491 665 ft 51 kts 248°
2026-04-25 10:43 55.59131 37.26041 668 ft 36 kts 248°
2026-04-25 10:43 55.59064 37.25742 668 ft 22 kts 248°
2026-04-25 10:44 55.59022 37.25477 662 ft 22 kts 263°
2026-04-25 10:44 55.59028 37.25195 658 ft 21 kts 277°
2026-04-25 10:44 55.59100 37.25027 658 ft 17 kts 352°
2026-04-25 10:44 55.59167 37.25165 659 ft 16 kts 68°
2026-04-25 10:45 55.59209 37.25353 663 ft 19 kts 68°
2026-04-25 10:45 55.59266 37.25608 667 ft 24 kts 69°
2026-04-25 10:45 55.59336 37.25924 668 ft 31 kts 68°
2026-04-25 10:45 55.59421 37.26300 668 ft 34 kts 68°
2026-04-25 10:46 55.59506 37.26671 668 ft 33 kts 68°
2026-04-25 10:46 55.59634 37.27003 668 ft 34 kts 46°
2026-04-25 10:46 55.59793 37.27297 672 ft 31 kts 46°
2026-04-25 10:46 55.59928 37.27548 676 ft 25 kts 46°
2026-04-25 10:47 55.60032 37.27750 679 ft 20 kts 33°
2026-04-25 10:47 55.60115 37.27884 679 ft 13 kts 26°
2026-04-25 10:47 55.60203 37.27846 679 ft 13 kts 348°
2026-04-25 10:47 55.60270 37.27868 679 ft 8 kts 51°
2026-04-25 10:48 55.60273 37.27957 679 ft 6 kts 93°
2026-04-25 10:48 55.60272 37.27989 679 ft 0 kts 92°